Year,Month,Day,Hour,Minute,Value (Times are PST for temperature in C)
2013,08,23,00,00,15.60
2013,08,23,00,01,15.70
2013,08,23,00,02,15.70
2013,08,23,00,03,15.70
2013,08,23,00,04,15.70
2013,08,23,00,05,15.70
2013,08,23,00,06,15.70
2013,08,23,00,07,15.60
2013,08,23,00,08,15.60
2013,08,23,00,09,15.60
2013,08,23,00,10,15.60
2013,08,23,00,11,15.60
2013,08,23,00,12,15.60
2013,08,23,00,13,15.60
2013,08,23,00,14,15.50
2013,08,23,00,15,15.50
2013,08,23,00,16,15.50
2013,08,23,00,17,15.50
2013,08,23,00,18,15.50
2013,08,23,00,19,15.50
2013,08,23,00,20,15.50
2013,08,23,00,21,15.40
2013,08,23,00,22,15.40
2013,08,23,00,23,15.40
2013,08,23,00,24,15.40
2013,08,23,00,25,15.40
2013,08,23,00,26,15.40
2013,08,23,00,27,15.30
2013,08,23,00,28,15.30
2013,08,23,00,29,15.30
2013,08,23,00,30,15.30
2013,08,23,00,31,15.20
2013,08,23,00,32,15.20
2013,08,23,00,33,15.10
2013,08,23,00,34,15.10
2013,08,23,00,35,15.10
2013,08,23,00,36,15.00
2013,08,23,00,37,15.00
2013,08,23,00,38,14.90
2013,08,23,00,39,14.90
2013,08,23,00,40,14.90
2013,08,23,00,41,14.80
2013,08,23,00,42,14.80
2013,08,23,00,43,14.80
2013,08,23,00,44,14.80
2013,08,23,00,45,14.80
2013,08,23,00,46,14.70
2013,08,23,00,47,14.70
2013,08,23,00,48,14.70
2013,08,23,00,49,14.70
2013,08,23,00,50,14.60
2013,08,23,00,51,14.60
2013,08,23,00,52,14.60
2013,08,23,00,53,14.60
2013,08,23,00,54,14.60
2013,08,23,00,55,14.50
2013,08,23,00,56,14.50
2013,08,23,00,57,14.50
2013,08,23,00,58,14.50
2013,08,23,00,59,14.50
2013,08,23,01,00,14.40
2013,08,23,01,01,14.40
2013,08,23,01,02,14.40
2013,08,23,01,03,14.40
2013,08,23,01,04,14.40
2013,08,23,01,05,14.40
2013,08,23,01,06,14.40
2013,08,23,01,07,14.40
2013,08,23,01,08,14.40
2013,08,23,01,09,14.40
2013,08,23,01,10,14.40
2013,08,23,01,11,14.40
2013,08,23,01,12,14.40
2013,08,23,01,13,14.40
2013,08,23,01,14,14.50
2013,08,23,01,15,14.50
2013,08,23,01,16,14.50
2013,08,23,01,17,14.50
2013,08,23,01,18,14.50
2013,08,23,01,19,14.50
2013,08,23,01,20,14.50
2013,08,23,01,21,14.50
2013,08,23,01,22,14.40
2013,08,23,01,23,14.40
2013,08,23,01,24,14.40
2013,08,23,01,25,14.40
2013,08,23,01,26,14.40
2013,08,23,01,27,14.40
2013,08,23,01,28,14.40
2013,08,23,01,29,14.40
2013,08,23,01,30,14.40
2013,08,23,01,31,14.40
2013,08,23,01,32,14.40
2013,08,23,01,33,14.40
2013,08,23,01,34,14.40
2013,08,23,01,35,14.40
2013,08,23,01,36,14.40
2013,08,23,01,37,14.40
2013,08,23,01,38,14.40
2013,08,23,01,39,14.40
2013,08,23,01,40,14.40
2013,08,23,01,41,14.40
2013,08,23,01,42,14.40
2013,08,23,01,43,14.40
2013,08,23,01,44,14.30
2013,08,23,01,45,14.30
2013,08,23,01,46,14.30
2013,08,23,01,47,14.30
2013,08,23,01,48,14.20
2013,08,23,01,49,14.10
2013,08,23,01,50,14.00
2013,08,23,01,51,13.90
2013,08,23,01,52,13.80
2013,08,23,01,53,13.70
2013,08,23,01,54,13.60
2013,08,23,01,55,13.60
2013,08,23,01,56,13.50
2013,08,23,01,57,13.50
2013,08,23,01,58,13.40
2013,08,23,01,59,13.40
2013,08,23,02,00,13.40
2013,08,23,02,01,13.30
2013,08,23,02,02,13.30
2013,08,23,02,03,13.30
2013,08,23,02,04,13.30
2013,08,23,02,05,13.30
2013,08,23,02,06,13.20
2013,08,23,02,07,13.20
2013,08,23,02,08,13.20
2013,08,23,02,09,13.20
2013,08,23,02,10,13.10
2013,08,23,02,11,13.10
2013,08,23,02,12,13.10
2013,08,23,02,13,13.00
2013,08,23,02,14,13.00
2013,08,23,02,15,13.00
2013,08,23,02,16,13.00
2013,08,23,02,17,13.00
2013,08,23,02,18,13.00
2013,08,23,02,19,13.00
2013,08,23,02,20,13.10
2013,08,23,02,21,13.10
2013,08,23,02,22,13.10
2013,08,23,02,23,13.10
2013,08,23,02,24,13.10
2013,08,23,02,25,13.10
2013,08,23,02,26,13.10
2013,08,23,02,27,13.20
2013,08,23,02,28,13.30
2013,08,23,02,29,13.30
2013,08,23,02,30,13.40
2013,08,23,02,31,13.40
2013,08,23,02,32,13.40
2013,08,23,02,33,13.40
2013,08,23,02,34,13.40
2013,08,23,02,35,13.40
2013,08,23,02,36,13.50
2013,08,23,02,37,13.50
2013,08,23,02,38,13.50
2013,08,23,02,39,13.50
2013,08,23,02,40,13.60
2013,08,23,02,41,13.60
2013,08,23,02,42,13.60
2013,08,23,02,43,13.60
2013,08,23,02,44,13.60
2013,08,23,02,45,13.60
2013,08,23,02,46,13.60
2013,08,23,02,47,13.60
2013,08,23,02,48,13.60
2013,08,23,02,49,13.60
2013,08,23,02,50,13.70
2013,08,23,02,51,13.70
2013,08,23,02,52,13.70
2013,08,23,02,53,13.70
2013,08,23,02,54,13.80
2013,08,23,02,55,13.80
2013,08,23,02,56,13.90
2013,08,23,02,57,14.00
2013,08,23,02,58,14.00
2013,08,23,02,59,14.10
2013,08,23,03,00,14.20
2013,08,23,03,01,14.20
2013,08,23,03,02,14.30
2013,08,23,03,03,14.40
2013,08,23,03,04,14.50
2013,08,23,03,05,14.50
2013,08,23,03,06,14.60
2013,08,23,03,07,14.70
2013,08,23,03,08,14.70
2013,08,23,03,09,14.80
2013,08,23,03,10,14.80
2013,08,23,03,11,14.90
2013,08,23,03,12,14.90
2013,08,23,03,13,14.90
2013,08,23,03,14,15.00
2013,08,23,03,15,15.00
2013,08,23,03,16,15.10
2013,08,23,03,17,15.10
2013,08,23,03,18,15.20
2013,08,23,03,19,15.20
2013,08,23,03,20,15.20
2013,08,23,03,21,15.20
2013,08,23,03,22,15.20
2013,08,23,03,23,15.20
2013,08,23,03,24,15.20
2013,08,23,03,25,15.20
2013,08,23,03,26,15.20
2013,08,23,03,27,15.20
2013,08,23,03,28,15.20
2013,08,23,03,29,15.20
2013,08,23,03,30,15.10
2013,08,23,03,31,15.10
2013,08,23,03,32,15.00
2013,08,23,03,33,14.90
2013,08,23,03,34,14.90
2013,08,23,03,35,14.90
2013,08,23,03,36,14.90
2013,08,23,03,37,14.90
2013,08,23,03,38,15.00
2013,08,23,03,39,15.10
2013,08,23,03,40,15.10
2013,08,23,03,41,15.20
2013,08,23,03,42,15.30
2013,08,23,03,43,15.40
2013,08,23,03,44,15.40
2013,08,23,03,45,15.50
2013,08,23,03,46,15.50
2013,08,23,03,47,15.60
2013,08,23,03,48,15.60
2013,08,23,03,49,15.70
2013,08,23,03,50,15.70
2013,08,23,03,51,15.70
2013,08,23,03,52,15.80
2013,08,23,03,53,15.80
2013,08,23,03,54,15.80
2013,08,23,03,55,15.80
2013,08,23,03,56,15.80
2013,08,23,03,57,15.80
2013,08,23,03,58,15.80
2013,08,23,03,59,15.90
2013,08,23,04,00,15.90
2013,08,23,04,01,15.90
2013,08,23,04,02,15.90
2013,08,23,04,03,15.90
2013,08,23,04,04,15.90
2013,08,23,04,05,15.90
2013,08,23,04,06,15.90
2013,08,23,04,07,16.00
2013,08,23,04,08,16.00
2013,08,23,04,09,16.00
2013,08,23,04,10,16.00
2013,08,23,04,11,16.00
2013,08,23,04,12,16.00
2013,08,23,04,13,16.10
2013,08,23,04,14,16.10
2013,08,23,04,15,16.10
2013,08,23,04,16,16.10
2013,08,23,04,17,16.10
2013,08,23,04,18,16.10
2013,08,23,04,19,16.10
2013,08,23,04,20,16.10
2013,08,23,04,21,16.10
2013,08,23,04,22,16.10
2013,08,23,04,23,16.00
2013,08,23,04,24,16.00
2013,08,23,04,25,16.00
2013,08,23,04,26,16.00
2013,08,23,04,27,16.00
2013,08,23,04,28,15.90
2013,08,23,04,29,15.80
2013,08,23,04,30,15.70
2013,08,23,04,31,15.60
2013,08,23,04,32,15.40
2013,08,23,04,33,15.20
2013,08,23,04,34,15.00
2013,08,23,04,35,14.80
2013,08,23,04,36,14.60
2013,08,23,04,37,14.40
2013,08,23,04,38,14.20
2013,08,23,04,39,14.10
2013,08,23,04,40,14.00
2013,08,23,04,41,13.90
2013,08,23,04,42,13.80
2013,08,23,04,43,13.80
2013,08,23,04,44,13.80
2013,08,23,04,45,13.80
2013,08,23,04,46,13.90
2013,08,23,04,47,14.00
2013,08,23,04,48,14.00
2013,08,23,04,49,14.10
2013,08,23,04,50,14.10
2013,08,23,04,51,14.20
2013,08,23,04,52,14.30
2013,08,23,04,53,14.30
2013,08,23,04,54,14.30
2013,08,23,04,55,14.30
2013,08,23,04,56,14.30
2013,08,23,04,57,14.20
2013,08,23,04,58,14.20
2013,08,23,04,59,14.10
2013,08,23,05,00,14.10
2013,08,23,05,01,14.00
2013,08,23,05,02,13.90
2013,08,23,05,03,13.80
2013,08,23,05,04,13.80
2013,08,23,05,05,13.70
2013,08,23,05,06,13.60
2013,08,23,05,07,13.60
2013,08,23,05,08,13.50
2013,08,23,05,09,13.50
2013,08,23,05,10,13.40
2013,08,23,05,11,13.40
2013,08,23,05,12,13.40
2013,08,23,05,13,13.40
2013,08,23,05,14,13.40
2013,08,23,05,15,13.40
2013,08,23,05,16,13.40
2013,08,23,05,17,13.30
2013,08,23,05,18,13.30
2013,08,23,05,19,13.20
2013,08,23,05,20,13.20
2013,08,23,05,21,13.20
2013,08,23,05,22,13.10
2013,08,23,05,23,13.10
2013,08,23,05,24,13.10
2013,08,23,05,25,13.10
2013,08,23,05,26,13.10
2013,08,23,05,27,13.10
2013,08,23,05,28,13.10
2013,08,23,05,29,13.10
2013,08,23,05,30,13.10
2013,08,23,05,31,13.10
2013,08,23,05,32,13.20
2013,08,23,05,33,13.20
2013,08,23,05,34,13.20
2013,08,23,05,35,13.20
2013,08,23,05,36,13.20
2013,08,23,05,37,13.20
2013,08,23,05,38,13.10
2013,08,23,05,39,13.10
2013,08,23,05,40,13.00
2013,08,23,05,41,13.00
2013,08,23,05,42,12.90
2013,08,23,05,43,12.90
2013,08,23,05,44,12.90
2013,08,23,05,45,12.90
2013,08,23,05,46,12.90
2013,08,23,05,47,12.80
2013,08,23,05,48,12.80
2013,08,23,05,49,12.90
2013,08,23,05,50,12.90
2013,08,23,05,51,12.90
2013,08,23,05,52,12.90
2013,08,23,05,53,12.90
2013,08,23,05,54,12.80
2013,08,23,05,55,12.80
2013,08,23,05,56,12.80
2013,08,23,05,57,12.80
2013,08,23,05,58,12.80
2013,08,23,05,59,12.70
2013,08,23,06,00,12.70
2013,08,23,06,01,12.70
2013,08,23,06,02,12.70
2013,08,23,06,03,12.70
2013,08,23,06,04,12.70
2013,08,23,06,05,12.70
2013,08,23,06,06,12.70
2013,08,23,06,07,12.70
2013,08,23,06,08,12.80
2013,08,23,06,09,12.80
2013,08,23,06,10,12.80
2013,08,23,06,11,12.80
2013,08,23,06,12,12.80
2013,08,23,06,13,12.80
2013,08,23,06,14,12.80
2013,08,23,06,15,12.80
2013,08,23,06,16,12.70
2013,08,23,06,17,12.70
2013,08,23,06,18,12.70
2013,08,23,06,19,12.70
2013,08,23,06,20,12.70
2013,08,23,06,21,12.60
2013,08,23,06,22,12.60
2013,08,23,06,23,12.60
2013,08,23,06,24,12.60
2013,08,23,06,25,12.60
2013,08,23,06,26,12.60
2013,08,23,06,27,12.60
2013,08,23,06,28,12.60
2013,08,23,06,29,12.60
2013,08,23,06,30,12.60
2013,08,23,06,31,12.60
2013,08,23,06,32,12.60
2013,08,23,06,33,12.60
2013,08,23,06,34,12.50
2013,08,23,06,35,12.50
2013,08,23,06,36,12.50
2013,08,23,06,37,12.40
2013,08,23,06,38,12.40
2013,08,23,06,39,12.40
2013,08,23,06,40,12.40
2013,08,23,06,41,12.40
2013,08,23,06,42,12.40
2013,08,23,06,43,12.40
2013,08,23,06,44,12.40
2013,08,23,06,45,12.40
2013,08,23,06,46,12.50
2013,08,23,06,47,12.50
2013,08,23,06,48,12.50
2013,08,23,06,49,12.50
2013,08,23,06,50,12.50
2013,08,23,06,51,12.50
2013,08,23,06,52,12.50
2013,08,23,06,53,12.50
2013,08,23,06,54,12.50
2013,08,23,06,55,12.50
2013,08,23,06,56,12.60
2013,08,23,06,57,12.60
2013,08,23,06,58,12.50
2013,08,23,06,59,12.60
2013,08,23,07,00,12.60
2013,08,23,07,01,12.60
2013,08,23,07,02,12.60
2013,08,23,07,03,12.60
2013,08,23,07,04,12.60
2013,08,23,07,05,12.60
2013,08,23,07,06,12.60
2013,08,23,07,07,12.60
2013,08,23,07,08,12.60
2013,08,23,07,09,12.70
2013,08,23,07,10,12.70
2013,08,23,07,11,12.70
2013,08,23,07,12,12.70
2013,08,23,07,13,12.70
2013,08,23,07,14,12.70
2013,08,23,07,15,12.80
2013,08,23,07,16,12.80
2013,08,23,07,17,12.80
2013,08,23,07,18,12.80
2013,08,23,07,19,12.80
2013,08,23,07,20,12.80
2013,08,23,07,21,12.90
2013,08,23,07,22,12.90
2013,08,23,07,23,12.90
2013,08,23,07,24,13.00
2013,08,23,07,25,13.10
2013,08,23,07,26,13.10
2013,08,23,07,27,13.20
2013,08,23,07,28,13.30
2013,08,23,07,29,13.40
2013,08,23,07,30,13.50
2013,08,23,07,31,13.60
2013,08,23,07,32,13.70
2013,08,23,07,33,13.80
2013,08,23,07,34,13.90
2013,08,23,07,35,14.00
2013,08,23,07,36,14.20
2013,08,23,07,37,14.40
2013,08,23,07,38,14.50
2013,08,23,07,39,14.70
2013,08,23,07,40,14.90
2013,08,23,07,41,15.20
2013,08,23,07,42,15.40
2013,08,23,07,43,15.50
2013,08,23,07,44,15.70
2013,08,23,07,45,15.80
2013,08,23,07,46,15.90
2013,08,23,07,47,16.10
2013,08,23,07,48,16.20
2013,08,23,07,49,16.30
2013,08,23,07,50,16.40
2013,08,23,07,51,16.50
2013,08,23,07,52,16.60
2013,08,23,07,53,16.60
2013,08,23,07,54,16.70
2013,08,23,07,55,16.70
2013,08,23,07,56,16.80
2013,08,23,07,57,16.80
2013,08,23,07,58,16.90
2013,08,23,07,59,16.90
2013,08,23,08,00,16.90
2013,08,23,08,01,16.90
2013,08,23,08,02,16.90
2013,08,23,08,03,17.00
2013,08,23,08,04,17.00
2013,08,23,08,05,17.00
2013,08,23,08,06,17.00
2013,08,23,08,07,17.10
2013,08,23,08,08,17.10
2013,08,23,08,09,17.10
2013,08,23,08,10,17.10
2013,08,23,08,11,17.10
2013,08,23,08,12,17.10
2013,08,23,08,13,17.10
2013,08,23,08,14,17.10
2013,08,23,08,15,17.10
2013,08,23,08,16,17.10
2013,08,23,08,17,17.10
2013,08,23,08,18,17.10
2013,08,23,08,19,17.10
2013,08,23,08,20,17.10
2013,08,23,08,21,17.10
2013,08,23,08,22,17.20
2013,08,23,08,23,17.20
2013,08,23,08,24,17.20
2013,08,23,08,25,17.20
2013,08,23,08,26,17.30
2013,08,23,08,27,17.30
2013,08,23,08,28,17.30
2013,08,23,08,29,17.30
2013,08,23,08,30,17.30
2013,08,23,08,31,17.30
2013,08,23,08,32,17.30
2013,08,23,08,33,17.30
2013,08,23,08,34,17.40
2013,08,23,08,35,17.40
2013,08,23,08,36,17.40
2013,08,23,08,37,17.40
2013,08,23,08,38,17.40
2013,08,23,08,39,17.50
2013,08,23,08,40,17.50
2013,08,23,08,41,17.50
2013,08,23,08,42,17.60
2013,08,23,08,43,17.60
2013,08,23,08,44,17.60
2013,08,23,08,45,17.60
2013,08,23,08,46,17.70
2013,08,23,08,47,17.70
2013,08,23,08,48,17.70
2013,08,23,08,49,17.80
2013,08,23,08,50,17.80
2013,08,23,08,51,17.80
2013,08,23,08,52,17.90
2013,08,23,08,53,17.90
2013,08,23,08,54,17.90
2013,08,23,08,55,18.00
2013,08,23,08,56,18.00
2013,08,23,08,57,18.00
2013,08,23,08,58,18.00
2013,08,23,08,59,18.00
2013,08,23,09,00,18.00
2013,08,23,09,01,18.00
2013,08,23,09,02,18.00
2013,08,23,09,03,18.00
2013,08,23,09,04,18.10
2013,08,23,09,05,18.10
2013,08,23,09,06,18.10
2013,08,23,09,07,18.20
2013,08,23,09,08,18.20
2013,08,23,09,09,18.30
2013,08,23,09,10,18.30
2013,08,23,09,11,18.40
2013,08,23,09,12,18.40
2013,08,23,09,13,18.40
2013,08,23,09,14,18.40
2013,08,23,09,15,18.40
2013,08,23,09,16,18.40
2013,08,23,09,17,18.40
2013,08,23,09,18,18.40
2013,08,23,09,19,18.40
2013,08,23,09,20,18.40
2013,08,23,09,21,18.40
2013,08,23,09,22,18.50
2013,08,23,09,23,18.50
2013,08,23,09,24,18.50
2013,08,23,09,25,18.40
2013,08,23,09,26,18.40
2013,08,23,09,27,18.50
2013,08,23,09,28,18.50
2013,08,23,09,29,18.60
2013,08,23,09,30,18.60
2013,08,23,09,31,18.70
2013,08,23,09,32,18.70
2013,08,23,09,33,18.70
2013,08,23,09,34,18.70
2013,08,23,09,35,18.70
2013,08,23,09,36,18.70
2013,08,23,09,37,18.70
2013,08,23,09,38,18.70
2013,08,23,09,39,18.80
2013,08,23,09,40,18.80
2013,08,23,09,41,18.80
2013,08,23,09,42,18.90
2013,08,23,09,43,19.00
2013,08,23,09,44,19.00
2013,08,23,09,45,19.10
2013,08,23,09,46,19.10
2013,08,23,09,47,19.10
2013,08,23,09,48,19.10
2013,08,23,09,49,19.20
2013,08,23,09,50,19.20
2013,08,23,09,51,19.30
2013,08,23,09,52,19.20
2013,08,23,09,53,19.20
2013,08,23,09,54,19.20
2013,08,23,09,55,19.30
2013,08,23,09,56,19.30
2013,08,23,09,57,19.40
2013,08,23,09,58,19.50
2013,08,23,09,59,19.60
2013,08,23,10,00,19.60
2013,08,23,10,01,19.60
2013,08,23,10,02,19.60
2013,08,23,10,03,19.60
2013,08,23,10,04,19.70
2013,08,23,10,05,19.70
2013,08,23,10,06,19.70
2013,08,23,10,07,19.80
2013,08,23,10,08,19.80
2013,08,23,10,09,19.80
2013,08,23,10,10,19.80
2013,08,23,10,11,19.70
2013,08,23,10,12,19.70
2013,08,23,10,13,19.80
2013,08,23,10,14,19.90
2013,08,23,10,15,19.90
2013,08,23,10,16,20.00
2013,08,23,10,17,19.90
2013,08,23,10,18,20.00
2013,08,23,10,19,20.00
2013,08,23,10,20,20.10
2013,08,23,10,21,20.10
2013,08,23,10,22,20.10
2013,08,23,10,23,20.10
2013,08,23,10,24,20.10
2013,08,23,10,25,20.10
2013,08,23,10,26,20.10
2013,08,23,10,27,20.10
2013,08,23,10,28,20.20
2013,08,23,10,29,20.20
2013,08,23,10,30,20.20
2013,08,23,10,31,20.20
2013,08,23,10,32,20.20
2013,08,23,10,33,20.20
2013,08,23,10,34,20.20
2013,08,23,10,35,20.20
2013,08,23,10,36,20.30
2013,08,23,10,37,20.30
2013,08,23,10,38,20.40
2013,08,23,10,39,20.40
2013,08,23,10,40,20.40
2013,08,23,10,41,20.40
2013,08,23,10,42,20.30
2013,08,23,10,43,20.30
2013,08,23,10,44,20.30
2013,08,23,10,45,20.30
2013,08,23,10,46,20.30
2013,08,23,10,47,20.30
2013,08,23,10,48,20.30
2013,08,23,10,49,20.40
2013,08,23,10,50,20.40
2013,08,23,10,51,20.40
2013,08,23,10,52,20.50
2013,08,23,10,53,20.50
2013,08,23,10,54,20.40
2013,08,23,10,55,20.40
2013,08,23,10,56,20.40
2013,08,23,10,57,20.50
2013,08,23,10,58,20.50
2013,08,23,10,59,20.50
2013,08,23,11,00,20.60
2013,08,23,11,01,20.50
2013,08,23,11,02,20.50
2013,08,23,11,03,20.50
2013,08,23,11,04,20.50
2013,08,23,11,05,20.70
2013,08,23,11,06,20.70
2013,08,23,11,07,20.70
2013,08,23,11,08,20.70
2013,08,23,11,09,20.60
2013,08,23,11,10,20.60
2013,08,23,11,11,20.70
2013,08,23,11,12,20.70
2013,08,23,11,13,20.80
2013,08,23,11,14,20.80
2013,08,23,11,15,20.90
2013,08,23,11,16,20.90
2013,08,23,11,17,20.70
2013,08,23,11,18,20.60
2013,08,23,11,19,20.50
2013,08,23,11,20,20.40
2013,08,23,11,21,20.50
2013,08,23,11,22,20.60
2013,08,23,11,23,20.70
2013,08,23,11,24,20.80
2013,08,23,11,25,20.90
2013,08,23,11,26,20.80
2013,08,23,11,27,20.80
2013,08,23,11,28,20.70
2013,08,23,11,29,20.60
2013,08,23,11,30,20.60
2013,08,23,11,31,20.60
2013,08,23,11,32,20.60
2013,08,23,11,33,20.60
2013,08,23,11,34,20.70
2013,08,23,11,35,20.70
2013,08,23,11,36,20.60
2013,08,23,11,37,20.60
2013,08,23,11,38,20.60
2013,08,23,11,39,20.60
2013,08,23,11,40,20.60
2013,08,23,11,41,20.60
2013,08,23,11,42,20.50
2013,08,23,11,43,20.50
2013,08,23,11,44,20.40
2013,08,23,11,45,20.50
2013,08,23,11,46,20.60
2013,08,23,11,47,20.60
2013,08,23,11,48,20.60
2013,08,23,11,49,20.70
2013,08,23,11,50,20.70
2013,08,23,11,51,20.70
2013,08,23,11,52,20.60
2013,08,23,11,53,20.60
2013,08,23,11,54,20.70
2013,08,23,11,55,20.70
2013,08,23,11,56,20.80
2013,08,23,11,57,20.90
2013,08,23,11,58,21.00
2013,08,23,11,59,21.20
2013,08,23,12,00,21.20
2013,08,23,12,01,21.10
2013,08,23,12,02,21.10
2013,08,23,12,03,21.00
2013,08,23,12,04,21.00
2013,08,23,12,05,21.00
2013,08,23,12,06,20.90
2013,08,23,12,07,20.90
2013,08,23,12,08,21.00
2013,08,23,12,09,21.00
2013,08,23,12,10,21.00
2013,08,23,12,11,20.90
2013,08,23,12,12,21.00
2013,08,23,12,13,21.00
2013,08,23,12,14,21.10
2013,08,23,12,15,21.10
2013,08,23,12,16,21.10
2013,08,23,12,17,21.10
2013,08,23,12,18,21.20
2013,08,23,12,19,21.20
2013,08,23,12,20,21.10
2013,08,23,12,21,21.10
2013,08,23,12,22,21.10
2013,08,23,12,23,21.10
2013,08,23,12,24,21.20
2013,08,23,12,25,21.20
2013,08,23,12,26,21.20
2013,08,23,12,27,21.30
2013,08,23,12,28,21.40
2013,08,23,12,29,21.50
2013,08,23,12,30,21.70
2013,08,23,12,31,21.70
2013,08,23,12,32,21.60
2013,08,23,12,33,21.70
2013,08,23,12,34,21.70
2013,08,23,12,35,21.80
2013,08,23,12,36,21.80
2013,08,23,12,37,21.80
2013,08,23,12,38,21.80
2013,08,23,12,39,21.70
2013,08,23,12,40,21.70
2013,08,23,12,41,21.80
2013,08,23,12,42,21.80
2013,08,23,12,43,21.80
2013,08,23,12,44,21.70
2013,08,23,12,45,21.60
2013,08,23,12,46,21.50
2013,08,23,12,47,21.50
2013,08,23,12,48,21.50
2013,08,23,12,49,21.40
2013,08,23,12,50,21.40
2013,08,23,12,51,21.40
2013,08,23,12,52,21.40
2013,08,23,12,53,21.30
2013,08,23,12,54,21.20
2013,08,23,12,55,21.20
2013,08,23,12,56,21.10
2013,08,23,12,57,21.10
2013,08,23,12,58,21.00
2013,08,23,12,59,21.00
2013,08,23,13,00,20.90
2013,08,23,13,01,21.00
2013,08,23,13,02,21.00
2013,08,23,13,03,21.00
2013,08,23,13,04,21.00
2013,08,23,13,05,21.00
2013,08,23,13,06,21.00
2013,08,23,13,07,21.00
2013,08,23,13,08,21.00
2013,08,23,13,09,21.10
2013,08,23,13,10,21.10
2013,08,23,13,11,21.10
2013,08,23,13,12,21.10
2013,08,23,13,13,21.20
2013,08,23,13,14,21.30
2013,08,23,13,15,21.30
2013,08,23,13,16,21.30
2013,08,23,13,17,21.30
2013,08,23,13,18,21.30
2013,08,23,13,19,21.40
2013,08,23,13,20,21.50
2013,08,23,13,21,21.70
2013,08,23,13,22,21.80
2013,08,23,13,23,21.90
2013,08,23,13,24,21.90
2013,08,23,13,25,21.80
2013,08,23,13,26,21.70
2013,08,23,13,27,21.70
2013,08,23,13,28,21.70
2013,08,23,13,29,21.70
2013,08,23,13,30,21.60
2013,08,23,13,31,21.60
2013,08,23,13,32,21.60
2013,08,23,13,33,21.50
2013,08,23,13,34,21.50
2013,08,23,13,35,21.60
2013,08,23,13,36,21.70
2013,08,23,13,37,21.80
2013,08,23,13,38,21.80
2013,08,23,13,39,21.90
2013,08,23,13,40,22.00
2013,08,23,13,41,21.90
2013,08,23,13,42,21.90
2013,08,23,13,43,22.00
2013,08,23,13,44,22.10
2013,08,23,13,45,22.00
2013,08,23,13,46,22.00
2013,08,23,13,47,22.10
2013,08,23,13,48,22.10
2013,08,23,13,49,22.10
2013,08,23,13,50,22.00
2013,08,23,13,51,22.00
2013,08,23,13,52,22.00
2013,08,23,13,53,22.00
2013,08,23,13,54,22.10
2013,08,23,13,55,22.10
2013,08,23,13,56,22.10
2013,08,23,13,57,22.10
2013,08,23,13,58,22.20
2013,08,23,13,59,22.20
2013,08,23,14,00,22.30
2013,08,23,14,01,22.40
2013,08,23,14,02,22.50
2013,08,23,14,03,22.60
2013,08,23,14,04,22.70
2013,08,23,14,05,22.60
2013,08,23,14,06,22.50
2013,08,23,14,07,22.30
2013,08,23,14,08,21.90
2013,08,23,14,09,21.60
2013,08,23,14,10,21.30
2013,08,23,14,11,21.10
2013,08,23,14,12,21.10
2013,08,23,14,13,21.00
2013,08,23,14,14,21.00
2013,08,23,14,15,20.90
2013,08,23,14,16,20.80
2013,08,23,14,17,20.70
2013,08,23,14,18,20.70
2013,08,23,14,19,20.70
2013,08,23,14,20,20.70
2013,08,23,14,21,20.60
2013,08,23,14,22,20.50
2013,08,23,14,23,20.40
2013,08,23,14,24,20.30
2013,08,23,14,25,20.20
2013,08,23,14,26,20.00
2013,08,23,14,27,19.80
2013,08,23,14,28,19.60
2013,08,23,14,29,19.50
2013,08,23,14,30,19.50
2013,08,23,14,31,19.40
2013,08,23,14,32,19.30
2013,08,23,14,33,19.10
2013,08,23,14,34,18.90
2013,08,23,14,35,18.80
2013,08,23,14,36,18.60
2013,08,23,14,37,18.50
2013,08,23,14,38,18.40
2013,08,23,14,39,18.40
2013,08,23,14,40,18.40
2013,08,23,14,41,18.40
2013,08,23,14,42,18.30
2013,08,23,14,43,18.30
2013,08,23,14,44,18.40
2013,08,23,14,45,18.40
2013,08,23,14,46,18.40
2013,08,23,14,47,18.50
2013,08,23,14,48,18.50
2013,08,23,14,49,18.60
2013,08,23,14,50,18.60
2013,08,23,14,51,18.60
2013,08,23,14,52,18.50
2013,08,23,14,53,18.40
2013,08,23,14,54,18.30
2013,08,23,14,55,18.30
2013,08,23,14,56,18.20
2013,08,23,14,57,18.20
2013,08,23,14,58,18.20
2013,08,23,14,59,18.10
2013,08,23,15,00,18.00
2013,08,23,15,01,18.00
2013,08,23,15,02,18.00
2013,08,23,15,03,18.00
2013,08,23,15,04,18.00
2013,08,23,15,05,18.10
2013,08,23,15,06,18.10
2013,08,23,15,07,18.20
2013,08,23,15,08,18.20
2013,08,23,15,09,18.30
2013,08,23,15,10,18.30
2013,08,23,15,11,18.40
2013,08,23,15,12,18.50
2013,08,23,15,13,18.70
2013,08,23,15,14,18.70
2013,08,23,15,15,18.80
2013,08,23,15,16,18.90
2013,08,23,15,17,18.80
2013,08,23,15,18,18.70
2013,08,23,15,19,18.50
2013,08,23,15,20,18.40
2013,08,23,15,21,18.40
2013,08,23,15,22,18.30
2013,08,23,15,23,18.30
2013,08,23,15,24,18.40
2013,08,23,15,25,18.40
2013,08,23,15,26,18.30
2013,08,23,15,27,18.40
2013,08,23,15,28,18.40
2013,08,23,15,29,18.50
2013,08,23,15,30,18.50
2013,08,23,15,31,18.40
2013,08,23,15,32,18.40
2013,08,23,15,33,18.30
2013,08,23,15,34,18.30
2013,08,23,15,35,18.30
2013,08,23,15,36,18.30
2013,08,23,15,37,18.30
2013,08,23,15,38,18.30
2013,08,23,15,39,18.30
2013,08,23,15,40,18.40
2013,08,23,15,41,18.40
2013,08,23,15,42,18.50
2013,08,23,15,43,18.50
2013,08,23,15,44,18.60
2013,08,23,15,45,18.70
2013,08,23,15,46,18.80
2013,08,23,15,47,18.70
2013,08,23,15,48,18.70
2013,08,23,15,49,18.60
2013,08,23,15,50,18.50
2013,08,23,15,51,18.50
2013,08,23,15,52,18.40
2013,08,23,15,53,18.30
2013,08,23,15,54,18.30
2013,08,23,15,55,18.20
2013,08,23,15,56,18.20
2013,08,23,15,57,18.20
2013,08,23,15,58,18.10
2013,08,23,15,59,18.10
2013,08,23,16,00,18.10
2013,08,23,16,01,18.10
2013,08,23,16,02,18.10
2013,08,23,16,03,18.10
2013,08,23,16,04,18.00
2013,08,23,16,05,18.00
2013,08,23,16,06,18.10
2013,08,23,16,07,18.10
2013,08,23,16,08,18.10
2013,08,23,16,09,18.10
2013,08,23,16,10,18.10
2013,08,23,16,11,18.10
2013,08,23,16,12,18.10
2013,08,23,16,13,18.10
2013,08,23,16,14,18.10
2013,08,23,16,15,18.10
2013,08,23,16,16,18.10
2013,08,23,16,17,18.10
2013,08,23,16,18,18.10
2013,08,23,16,19,18.10
2013,08,23,16,20,18.00
2013,08,23,16,21,18.00
2013,08,23,16,22,18.10
2013,08,23,16,23,18.10
2013,08,23,16,24,18.00
2013,08,23,16,25,18.00
2013,08,23,16,26,18.00
2013,08,23,16,27,18.10
2013,08,23,16,28,18.10
2013,08,23,16,29,18.10
2013,08,23,16,30,18.20
2013,08,23,16,31,18.20
2013,08,23,16,32,18.20
2013,08,23,16,33,18.20
2013,08,23,16,34,18.30
2013,08,23,16,35,18.30
2013,08,23,16,36,18.40
2013,08,23,16,37,18.50
2013,08,23,16,38,18.50
2013,08,23,16,39,18.40
2013,08,23,16,40,18.40
2013,08,23,16,41,18.40
2013,08,23,16,42,18.30
2013,08,23,16,43,18.20
2013,08,23,16,44,18.20
2013,08,23,16,45,18.10
2013,08,23,16,46,18.10
2013,08,23,16,47,18.20
2013,08,23,16,48,18.20
2013,08,23,16,49,18.20
2013,08,23,16,50,18.20
2013,08,23,16,51,18.20
2013,08,23,16,52,18.20
2013,08,23,16,53,18.20
2013,08,23,16,54,18.20
2013,08,23,16,55,18.10
2013,08,23,16,56,18.10
2013,08,23,16,57,18.10
2013,08,23,16,58,18.10
2013,08,23,16,59,18.10
2013,08,23,17,00,18.00
2013,08,23,17,01,18.00
2013,08,23,17,02,18.10
2013,08,23,17,03,18.10
2013,08,23,17,04,18.10
2013,08,23,17,05,18.10
2013,08,23,17,06,18.10
2013,08,23,17,07,18.20
2013,08,23,17,08,18.20
2013,08,23,17,09,18.20
2013,08,23,17,10,18.20
2013,08,23,17,11,18.10
2013,08,23,17,12,18.10
2013,08,23,17,13,18.10
2013,08,23,17,14,18.10
2013,08,23,17,15,18.10
2013,08,23,17,16,18.10
2013,08,23,17,17,18.10
2013,08,23,17,18,18.10
2013,08,23,17,19,18.20